Location: Belloy
(55.7522°N, 118.2333°W)
Time: 23:49:19
(UTC+00:00)

Envisat - Pass Details

Date: 30 November 2021
Orbit: 764 x 766 km, 98.2° (Epoch: 27 January)

Event Time Altitude Azimuth Distance (km) Brightness Sun altitude
Rises 12:58:24 0° 16° (NNE) 3,250 6.4 -23.8°
Reaches altitude 10° 13:00:44 10° 19° (NNE) 2,319 5.6 -23.5°
Maximum altitude 13:05:50 68° 103° (ESE) 827 3.3 -22.8°
Drops below altitude 10° 13:10:54 10° 187° (S) 2,301 5.5 -22.1°
Sets 13:13:12 0° 190° (S) 3,223 6.2 -21.8°
